Temperature
22 21 20 21 27 32 32 32 32 32 32 30 30 30 31 30 30 28 23 23 22 22 22 22 21 20 19 19 19 20 20 20 20 20 20 20 20 20 20 20 20 20 20 20 20 20 20 20 20
22 21 21 26 31 32 31 32 32 31 31 30 29 29 30 28 25 23 22 22 21 22 22 22 21 20 20 19 19 20 20 20 20 20 20 20 20 20 20 20 20 20 20 20 20 20 20 20 20
22 22 25 31 33 32 32 32 32 31 30 30 30 29 29 27 24 23 22 21 21 21 21 22 21 21 20 20 20 20 20 20 20 20 20 20 20 20 20 20 20 20 20 20 20 20 20 20 20
22 24 28 32 33 32 32 32 32 32 31 30 30 29 27 24 24 23 22 21 21 21 20 22 21 21 21 20 20 20 20 20 20 20 20 20 20 20 20 20 20 20 20 20 20 19 19 19 19
23 28 32 33 33 33 32 32 31 32 32 31 30 30 26 23 23 22 22 22 22 21 20 21 21 21 21 21 20 20 20 20 20 20 20 20 20 20 20 20 20 20 19 19 19 19 19 19 19
28 31 33 33 33 33 33 32 32 32 32 30 30 30 26 22 22 22 22 22 22 21 21 21 22 21 21 21 21 20 20 20 20 20 20 20 20 19 19 19 19 19 19 19 19 19 19 19 19
30 32 33 33 32 32 33 32 33 33 32 31 30 30 26 24 22 22 22 22 22 22 21 20 21 21 21 21 20 20 20 20 20 20 20 19 19 19 19 19 19 19 19 19 19 19 19 19 19
29 32 33 33 32 32 32 32 31 32 32 29 29 31 28 23 22 22 21 21 21 21 21 20 20 19 20 20 20 20 20 20 20 20 20 19 19 19 19 19 19 19 19 19 19 19 19 19 19
28 32 33 33 32 32 33 33 31 29 30 29 29 28 27 23 22 22 21 21 20 20 21 20 20 19 19 19 19 20 20 20 20 19 19 19 19 18 18 19 19 19 19 19 19 19 19 19 19
30 32 33 32 32 32 32 32 32 31 31 30 27 25 24 23 23 22 22 21 21 20 20 20 20 20 19 19 19 18 18 19 19 18 18 18 18 18 18 18 19 19 19 19 19 19 19 18 18
30 31 32 32 31 31 32 33 32 33 33 32 30 25 24 24 23 24 23 23 22 21 20 20 20 19 19 19 19 19 19 19 18 18 18 18 18 18 18 18 18 19 19 19 18 18 18 18 18
30 30 30 30 30 30 31 32 33 33 32 29 29 26 24 24 24 24 24 24 22 21 21 20 20 19 19 19 19 19 19 19 19 18 18 19 18 18 18 18 18 18 18 18 18 18 18 17 17
29 30 30 30 30 30 31 32 32 33 31 28 27 25 25 25 25 24 24 23 22 21 21 21 20 20 20 20 19 18 18 19 19 18 18 18 18 18 18 18 18 18 18 18 18 18 18 18 17
29 29 30 30 31 30 31 32 32 32 30 27 26 26 26 26 25 24 23 22 22 21 21 21 20 20 20 20 20 19 19 19 18 18 18 18 18 18 18 18 18 18 18 18 18 18 18 18 18
28 29 31 31 31 31 31 32 32 31 29 28 27 26 26 25 25 24 23 23 22 21 21 20 20 20 20 20 19 19 19 19 18 18 18 18 18 18 18 18 18 18 18 18 18 18 18 18 18
29 30 30 32 31 30 30 31 32 29 29 28 27 25 25 24 24 23 23 22 22 22 21 20 20 19 19 19 19 19 18 18 18 18 18 17 17 17 17 17 17 17 17 17 17 18 18 17 17
29 30 30 31 31 30 30 31 30 28 28 28 26 25 24 23 23 23 22 22 22 21 20 20 20 19 19 19 19 18 18 18 18 18 17 17 17 17 17 17 17 17 17 17 17 17 17 17 17
29 29 29 30 30 30 30 30 29 27 28 27 26 25 24 24 23 22 22 22 21 21 20 20 19 19 19 19 19 18 18 18 18 18 17 17 17 16 16 16 16 16 16 16 16 16 16 16 17
28 29 29 29 29 30 29 29 28 27 27 26 25 25 25 25 23 22 22 22 21 21 20 20 19 19 19 19 19 19 19 18 18 17 17 16 16 16 16 16 15 15 16 15 15 16 16 16 17
28 28 29 29 29 29 29 29 29 27 27 26 26 25 25 24 23 22 22 22 22 21 21 20 20 20 20 19 19 19 18 18 18 17 17 16 16 16 15 15 15 15 15 15 15 15 15 16 16
28 28 28 28 29 29 28 28 29 28 27 26 25 25 25 25 24 23 23 23 22 21 21 20 20 20 20 20 19 19 18 18 18 17 17 16 16 15 15 15 15 15 15 15 15 15 14 15 15
28 29 28 28 27 28 28 27 29 29 28 28 27 26 25 24 24 24 23 23 22 21 21 20 20 20 20 20 19 19 19 19 18 17 17 16 15 15 15 15 14 15 14 14 14 14 14 13 14
28 28 27 27 27 27 28 27 28 29 28 28 28 26 25 24 23 23 22 22 21 21 20 20 20 20 20 20 20 20 19 18 18 17 16 16 15 15 14 14 14 14 14 14 14 14 14 14 14
27 27 27 27 27 26 26 26 27 27 25 26 26 24 23 22 21 21 20 20 20 19 19 19 20 20 20 20 20 19 19 18 18 17 16 16 15 14 14 14 14 14 13 13 13 14 14 14 14
28 27 26 26 26 26 26 26 25 23 23 23 22 21 20 18 17 17 18 18 18 18 18 19 19 19 19 19 19 19 19 18 18 17 16 15 15 15 14 14 14 14 14 14 13 13 14 14 14
27 26 25 25 25 26 27 26 24 21 20 19 18 17 16 15 15 14 14 15 15 15 16 16 17 17 18 18 18 18 18 17 17 16 16 15 15 15 15 14 14 14 13 13 13 13 13 13 14
27 27 27 26 26 25 26 26 23 21 19 18 17 16 15 14 14 14 14 14 13 13 14 14 14 15 15 16 16 17 17 17 16 16 16 15 15 14 14 14 14 13 13 13 13 13 13 14 14
26 26 26 26 24 24 25 26 25 20 18 17 16 15 14 14 14 13 13 13 13 13 12 12 13 13 14 14 15 15 16 16 16 15 15 15 15 14 14 14 14 13 13 13 13 13 13 13 14
26 26 25 26 25 24 24 25 18 17 16 16 16 15 14 14 13 13 12 12 12 12 12 11 12 12 12 13 13 14 14 14 15 15 15 14 14 14 14 14 13 13 13 13 13 13 13 13 13
26 25 25 24 24 24 24 23 16 15 15 15 14 14 13 13 13 13 12 12 11 11 11 11 11 11 11 11 12 12 12 13 13 14 14 14 14 14 13 13 13 12 12 12 13 13 12 12 12
Wind_Speed
10 8 5 4 5 3 7 6 4 5 6 6 4 1 3 4 4 4 6 14 17 18 20 21 18 16 15 14 14 16 16 16 15 15 14 13 12 12 11 10 10 9 9 9 8 8 8 8 8
5 5 5 5 4 6 7 4 5 6 6 4 4 2 3 6 6 6 10 14 18 19 19 19 19 17 15 14 14 14 15 14 14 13 12 11 11 10 10 9 9 8 8 8 8 8 8 7 7
5 6 5 5 1 5 7 5 5 4 3 3 4 4 4 6 5 5 11 17 17 17 17 19 19 17 15 14 14 13 13 13 12 12 11 11 10 9 8 8 8 7 7 6 6 6 6 6 6
4 5 5 5 2 4 2 3 2 2 3 4 4 6 6 6 4 8 16 17 17 16 17 20 19 17 16 15 14 13 13 13 12 11 11 10 10 9 9 9 8 8 7 6 6 5 5 5 6
5 5 6 3 2 3 1 1 1 1 3 4 4 7 7 6 7 14 17 17 16 16 15 20 19 18 16 15 14 13 12 12 12 12 11 11 11 10 9 9 9 8 8 7 7 6 6 6 6
5 5 7 2 3 2 2 3 3 0 3 3 4 8 7 7 9 13 15 15 15 15 15 19 18 17 17 16 15 14 14 13 12 12 12 11 11 10 10 10 10 9 9 9 8 8 7 7 7
7 6 4 2 2 4 2 1 2 2 2 3 3 6 9 10 10 12 13 12 13 13 14 16 17 17 16 15 15 15 14 14 14 13 13 12 12 11 11 11 11 11 11 11 10 10 10 10 9
5 5 6 4 3 4 3 2 1 4 3 4 2 4 8 13 12 12 12 11 10 11 12 13 14 15 15 15 15 15 15 14 14 14 14 13 13 13 13 13 14 13 12 12 13 12 12 12 12
5 7 6 3 2 3 2 0 1 1 2 4 4 6 11 18 15 13 11 10 10 11 10 12 13 12 13 13 16 16 15 16 15 15 16 14 14 14 14 16 12 13 14 15 15 15 15 15 16
5 9 3 2 3 4 5 3 2 4 5 5 7 10 15 18 16 14 13 12 13 13 13 10 11 11 12 11 11 13 14 15 16 14 14 14 13 12 12 6 10 14 16 16 17 17 16 17 15
5 7 4 3 5 7 6 3 3 6 4 3 6 14 17 18 17 14 13 12 12 12 11 11 10 10 10 9 9 9 10 11 13 14 13 13 11 11 11 10 11 14 15 15 14 15 14 14 12
6 7 7 7 7 8 8 6 6 7 1 4 3 16 18 19 17 15 13 11 10 10 11 10 10 9 9 9 7 8 8 8 9 11 13 11 9 9 9 8 10 10 9 9 10 9 12 12 13
8 8 7 8 10 10 11 11 9 8 1 2 8 16 17 17 17 14 11 10 9 10 10 9 9 9 8 8 7 8 8 9 10 9 11 12 9 9 8 8 9 11 11 10 9 10 11 11 12
6 9 11 11 9 7 10 12 11 8 2 5 11 14 16 16 16 14 11 10 10 9 9 9 9 9 9 8 8 7 8 8 10 9 10 11 10 9 9 10 10 11 12 11 9 11 11 11 11
8 10 11 7 5 4 8 14 14 7 4 8 11 13 15 15 14 13 11 10 10 9 9 9 10 9 9 9 9 7 8 8 8 8 10 11 11 11 9 10 11 11 12 12 11 13 11 11 11
8 10 12 5 2 1 8 16 6 3 7 9 11 13 14 13 13 11 10 9 8 8 9 9 8 8 8 8 7 7 7 7 7 7 8 10 10 10 8 9 9 9 10 9 10 11 11 11 11
9 11 9 5 0 3 6 11 2 4 8 10 11 13 13 13 12 10 9 9 8 8 8 8 7 7 7 7 6 6 6 6 6 6 6 6 7 7 6 6 7 8 8 9 10 10 10 11 12
4 6 6 6 3 6 5 5 2 3 7 9 11 12 12 12 11 9 8 7 6 6 5 5 5 5 5 4 3 4 4 5 4 4 3 4 4 5 6 7 7 9 9 9 9 10 11 11 12
3 5 6 3 4 6 5 4 1 4 7 9 11 12 12 10 10 9 8 8 7 6 5 5 4 4 3 2 2 2 3 3 3 2 1 2 3 4 5 8 8 9 10 11 13 13 14 13 12
3 5 5 4 1 6 8 6 3 5 7 9 12 12 12 11 10 9 9 8 7 7 5 5 5 4 4 3 2 2 3 4 4 3 2 3 3 5 6 7 9 10 10 12 13 13 13 14 12
6 7 8 8 7 9 10 12 9 7 8 10 11 11 11 11 11 10 10 9 8 6 5 4 4 4 5 4 4 4 4 5 5 5 5 3 4 5 6 8 10 10 11 11 11 12 14 14 14
9 5 6 8 11 13 9 13 12 9 10 12 12 11 10 9 9 8 8 7 7 5 5 5 5 6 6 7 7 7 7 8 7 6 5 4 4 6 7 8 9 10 10 10 11 11 12 13 13
7 4 6 9 11 12 9 10 9 3 9 11 10 8 6 5 5 4 3 3 3 4 5 6 7 8 8 8 7 7 8 8 7 5 5 6 6 6 7 8 9 10 10 11 11 12 13 12 13
3 6 8 9 9 6 2 7 4 6 9 10 8 5 2 1 2 5 6 6 6 7 7 8 8 9 8 8 8 8 8 8 8 7 7 7 6 6 6 8 9 10 10 11 12 12 13 12 13
6 10 8 7 5 2 2 6 4 12 14 13 13 14 13 14 14 14 14 14 13 12 11 10 9 8 7 7 7 7 7 7 8 8 7 7 7 7 6 8 9 10 11 12 12 12 13 13 13
9 9 9 8 8 9 5 3 8 15 15 16 17 18 19 19 17 17 16 15 15 15 15 14 12 9 7 5 4 5 6 7 7 7 7 7 7 7 7 9 10 11 12 12 12 12 13 11 12
7 7 7 10 12 11 7 2 9 14 15 16 17 18 18 17 17 16 16 16 16 16 16 16 15 13 12 9 6 5 5 7 7 7 8 8 6 7 8 9 11 11 12 12 13 12 13 12 12
4 6 6 8 8 10 7 8 2 9 10 12 14 15 15 15 16 16 16 16 16 16 15 15 15 15 14 14 12 8 8 7 8 9 9 9 9 9 9 10 11 11 11 12 12 13 12 12 12
4 4 5 7 8 11 15 7 6 8 8 9 11 13 14 15 15 14 14 14 15 15 16 15 15 15 14 14 14 13 11 10 9 9 11 11 11 10 10 10 11 11 11 11 11 12 12 11 10
3 4 4 7 9 10 15 5 9 9 8 9 10 12 13 14 14 14 14 14 14 14 15 15 15 14 14 14 14 14 13 13 12 11 12 12 13 13 12 11 11 11 10 10 10 10 10 9 8
Wind_Direction
173 181 213 231 241 164 88 87 70 54 57 49 54 67 20 21 360 58 116 144 145 147 147 155 160 156 151 148 142 138 140 142 142 141 140 141 142 142 141 139 137 137 138 139 139 137 135 135 137
180 190 225 244 252 104 103 97 75 55 69 75 78 79 68 62 48 95 135 146 149 147 149 156 156 157 153 151 149 146 145 146 146 145 145 147 148 149 152 152 152 152 152 153 152 149 147 147 149
203 222 261 260 280 93 101 97 70 87 82 36 60 54 54 58 79 113 136 149 151 144 147 147 156 159 156 155 155 154 153 152 152 152 153 155 157 161 165 167 169 172 173 174 174 170 164 162 163
220 228 245 256 116 87 78 63 54 127 89 54 68 86 81 54 72 121 139 151 148 147 152 148 160 161 160 161 162 162 163 163 164 165 166 168 171 177 183 185 188 192 195 198 201 199 192 189 188
244 259 252 219 116 106 121 29 245 225 49 61 66 94 94 76 95 128 146 151 151 154 153 150 162 164 166 168 170 171 173 175 177 180 183 185 188 194 200 201 205 210 213 217 223 226 225 221 220
255 259 260 219 123 126 165 173 188 126 65 91 95 107 101 114 126 139 148 156 155 156 156 149 162 168 170 174 176 179 182 185 189 192 197 200 203 208 216 222 224 227 230 232 234 239 243 243 243
282 282 266 247 164 147 109 167 230 197 132 99 108 111 125 133 133 143 148 158 158 161 160 156 169 173 176 180 184 187 190 193 198 202 206 211 215 220 227 231 234 236 238 240 241 244 248 251 250
284 274 234 199 177 131 110 171 346 307 65 103 135 120 142 145 144 146 149 157 164 168 170 164 180 176 182 186 192 198 201 204 207 212 216 220 224 227 230 235 231 235 241 245 248 250 254 254 251
270 254 222 160 112 97 53 273 115 306 155 140 97 74 115 139 145 149 152 160 171 179 185 183 185 184 194 198 186 198 207 211 214 217 220 226 236 236 225 231 227 234 244 248 250 253 256 258 251
254 251 210 46 353 341 340 324 280 223 209 171 128 113 129 146 154 162 165 169 176 183 189 191 198 191 204 209 196 207 214 212 218 228 222 224 236 250 254 231 221 242 250 253 251 252 255 254 256
258 271 324 320 334 327 309 278 237 243 227 204 175 154 155 158 164 169 168 170 170 177 186 193 202 203 211 210 219 219 224 224 225 233 237 242 252 251 252 252 233 234 240 249 246 242 249 253 257
266 276 292 301 320 312 299 280 249 238 282 54 149 161 163 166 169 171 169 166 161 171 180 192 197 206 218 228 227 232 236 234 233 232 236 242 249 257 261 262 269 266 256 253 259 259 259 262 268
256 277 288 285 287 286 280 267 267 258 307 118 143 160 166 167 168 171 168 166 168 176 183 189 195 204 213 226 246 246 248 249 242 239 240 242 251 263 270 276 276 277 277 270 263 269 271 269 266
291 292 280 275 275 260 259 258 251 254 174 151 157 164 167 166 167 167 174 180 183 189 192 195 202 205 211 219 231 247 256 251 262 258 256 259 263 268 273 274 274 273 273 275 274 269 268 267 266
286 280 266 241 250 252 253 248 242 255 202 179 169 165 163 165 168 174 181 188 191 197 205 208 211 213 215 229 240 248 253 256 260 266 269 269 267 268 270 271 270 270 270 269 267 267 263 258 256
255 254 250 211 280 266 250 258 232 237 215 197 178 168 166 169 176 182 187 199 202 207 213 220 225 221 222 236 255 269 272 275 276 281 283 286 285 280 277 272 273 279 279 273 270 267 268 262 258
226 240 250 241 1 317 264 274 337 266 219 200 185 175 168 171 180 183 190 197 205 211 219 224 230 234 236 244 253 263 274 282 286 293 300 305 302 305 296 289 290 288 281 277 276 277 275 273 270
225 248 245 260 346 318 294 293 292 241 216 199 191 183 178 178 176 172 176 177 181 188 199 210 211 218 227 232 242 267 276 281 283 291 303 311 316 324 317 300 302 299 290 287 286 288 279 274 274
290 265 265 279 345 311 311 309 219 199 202 198 198 192 189 180 163 162 162 156 154 158 165 176 181 168 189 198 245 263 280 290 289 287 301 304 321 326 312 306 308 294 290 291 289 285 280 272 269
274 272 267 254 305 304 298 288 233 211 213 208 202 198 196 186 175 171 169 165 164 160 161 170 177 174 195 189 234 266 294 284 294 279 255 277 308 313 306 308 298 295 293 284 280 278 277 275 267
294 295 302 304 302 267 275 269 233 214 216 217 219 216 213 206 194 182 179 175 173 175 182 185 188 194 210 214 231 232 242 255 251 254 251 265 295 302 304 298 296 297 291 287 286 284 276 274 270
299 328 303 298 294 292 288 288 273 236 232 230 226 223 225 216 205 185 181 185 193 198 208 213 220 223 222 225 242 262 279 290 300 290 288 287 283 296 299 296 294 289 285 282 279 276 274 271 270
323 333 292 294 293 287 273 276 289 271 270 263 246 238 243 225 207 185 198 233 258 273 269 256 245 240 234 234 239 252 268 285 290 284 274 281 288 287 295 300 299 294 290 290 288 284 276 270 266
303 271 259 258 268 268 357 302 306 21 356 342 358 3 326 312 54 31 7 351 336 323 305 288 270 258 247 240 243 248 268 277 282 275 281 282 293 294 299 305 302 297 297 298 294 289 281 275 271
283 288 284 273 259 302 72 288 38 43 29 27 31 35 39 41 38 31 23 15 5 355 343 328 311 295 282 259 250 249 256 261 258 265 270 282 298 305 316 312 305 302 301 298 295 290 283 279 274
306 291 279 294 299 310 284 272 84 62 54 52 53 53 52 50 47 44 37 33 26 21 14 7 357 344 334 310 284 265 255 254 257 248 268 278 291 303 314 304 299 299 300 300 298 291 284 278 274
304 288 307 287 281 282 282 196 121 63 61 56 54 52 50 47 43 41 37 34 30 28 25 20 16 13 7 357 339 304 282 270 270 260 252 266 274 286 291 296 296 297 300 301 299 291 288 282 275
312 308 282 279 288 289 283 264 262 39 49 51 47 44 39 35 32 27 24 21 17 17 16 16 16 16 13 10 0 348 323 294 276 269 269 272 274 274 278 283 290 295 298 299 297 294 290 286 281
293 264 285 281 287 292 292 302 65 65 54 41 36 28 23 18 16 14 12 8 5 4 3 2 1 1 2 2 359 355 347 330 306 283 275 270 268 267 266 271 281 288 293 297 297 296 297 295 293
289 322 310 303 299 288 285 296 89 81 57 26 10 5 2 359 356 355 355 353 353 353 352 351 348 347 346 345 343 343 342 339 331 316 298 282 269 262 259 261 269 278 284 291 295 300 304 304 304
Height
1515 1515 1516 1518 1511 1497 1502 1499 1496 1495 1495 1500 1502 1502 1501 1503 1506 1515 1519 1520 1522 1524 1526 1529 1531 1534 1537 1540 1543 1545 1547 1549 1550 1551 1552 1553 1554 1555 1555 1556 1557 1558 1558 1559 1559 1560 1560 1561 1561
1517 1516 1518 1515 1499 1503 1506 1498 1497 1498 1501 1503 1504 1505 1504 1508 1513 1516 1518 1520 1523 1526 1528 1530 1532 1535 1538 1541 1544 1546 1548 1549 1551 1552 1553 1554 1555 1556 1556 1557 1558 1558 1559 1560 1560 1560 1561 1561 1561
1517 1517 1518 1505 1495 1501 1503 1497 1498 1501 1503 1503 1504 1506 1508 1513 1516 1517 1519 1521 1525 1528 1530 1531 1534 1537 1539 1542 1545 1547 1548 1550 1551 1552 1553 1554 1555 1556 1556 1557 1557 1558 1559 1560 1560 1560 1560 1561 1561
1519 1519 1515 1503 1498 1497 1498 1497 1499 1500 1501 1504 1505 1508 1513 1517 1518 1519 1519 1523 1528 1529 1532 1532 1535 1538 1540 1543 1545 1547 1549 1550 1551 1552 1553 1554 1555 1555 1556 1556 1557 1557 1558 1559 1559 1560 1560 1560 1560
1520 1516 1504 1498 1497 1497 1498 1500 1501 1500 1500 1504 1505 1508 1515 1518 1518 1520 1522 1526 1529 1531 1534 1533 1536 1538 1541 1543 1545 1547 1548 1550 1551 1552 1553 1553 1554 1554 1555 1555 1556 1556 1557 1557 1558 1558 1558 1559 1559
1519 1509 1501 1499 1498 1497 1497 1500 1500 1500 1501 1505 1506 1508 1517 1520 1521 1522 1524 1528 1531 1533 1535 1534 1536 1538 1541 1543 1545 1546 1547 1549 1550 1551 1552 1552 1553 1553 1554 1554 1554 1555 1555 1556 1556 1557 1557 1557 1557
1516 1505 1500 1499 1499 1498 1497 1499 1498 1498 1500 1504 1507 1508 1517 1521 1522 1524 1526 1529 1532 1534 1536 1535 1536 1538 1540 1542 1544 1545 1547 1548 1549 1550 1551 1551 1552 1552 1553 1553 1553 1553 1553 1554 1554 1555 1555 1555 1555
1515 1506 1498 1497 1499 1498 1498 1499 1500 1500 1500 1507 1508 1508 1514 1520 1521 1524 1526 1529 1531 1534 1536 1536 1539 1540 1541 1542 1543 1544 1546 1547 1548 1548 1549 1550 1550 1550 1551 1551 1551 1551 1551 1551 1552 1552 1553 1553 1553
1515 1506 1498 1497 1500 1498 1498 1498 1501 1503 1504 1506 1509 1511 1514 1517 1521 1524 1526 1528 1530 1532 1535 1537 1540 1540 1541 1543 1543 1543 1544 1545 1546 1547 1547 1548 1548 1550 1550 1549 1549 1549 1549 1549 1549 1549 1550 1550 1550
1512 1503 1496 1499 1500 1500 1499 1499 1500 1501 1501 1504 1509 1512 1513 1516 1520 1524 1526 1527 1529 1531 1534 1535 1538 1539 1540 1542 1543 1542 1543 1544 1544 1546 1546 1546 1547 1548 1549 1547 1546 1546 1546 1545 1546 1546 1546 1546 1547
1510 1503 1500 1501 1502 1502 1499 1498 1498 1498 1496 1500 1504 1510 1512 1516 1520 1523 1526 1528 1529 1531 1533 1534 1536 1537 1539 1540 1541 1542 1543 1543 1543 1543 1543 1544 1544 1544 1544 1544 1544 1543 1542 1543 1543 1543 1543 1544 1544
1510 1507 1507 1504 1503 1503 1500 1498 1496 1496 1497 1502 1504 1507 1510 1514 1518 1522 1524 1527 1529 1530 1531 1533 1535 1535 1536 1538 1539 1539 1540 1540 1540 1539 1539 1540 1540 1540 1540 1540 1541 1541 1540 1539 1539 1539 1539 1539 1539
1509 1507 1506 1505 1503 1502 1501 1498 1497 1495 1499 1502 1504 1506 1509 1513 1517 1521 1524 1526 1528 1529 1531 1532 1533 1533 1534 1534 1535 1536 1536 1537 1537 1536 1536 1536 1536 1536 1536 1536 1536 1536 1536 1535 1534 1534 1534 1534 1534
1508 1507 1504 1502 1501 1500 1499 1496 1496 1495 1500 1502 1504 1506 1509 1513 1516 1520 1522 1525 1527 1528 1530 1531 1531 1531 1532 1532 1532 1532 1533 1533 1533 1533 1533 1532 1532 1531 1531 1531 1530 1530 1529 1529 1529 1528 1528 1528 1528
1509 1505 1499 1497 1498 1497 1498 1495 1493 1495 1499 1502 1504 1506 1509 1512 1515 1518 1521 1523 1526 1527 1528 1529 1529 1530 1530 1530 1530 1530 1530 1530 1529 1529 1529 1528 1528 1527 1526 1525 1524 1524 1524 1524 1524 1523 1523 1522 1522
1504 1502 1500 1492 1496 1498 1499 1495 1489 1496 1499 1500 1503 1506 1508 1511 1514 1517 1519 1521 1524 1525 1526 1526 1527 1528 1528 1528 1527 1528 1527 1527 1526 1526 1525 1524 1524 1523 1522 1521 1520 1520 1519 1518 1518 1518 1517 1517 1516
1500 1500 1498 1494 1494 1495 1495 1492 1492 1496 1497 1499 1503 1505 1507 1510 1512 1514 1516 1518 1520 1522 1523 1523 1524 1525 1525 1525 1525 1525 1524 1524 1524 1523 1522 1521 1520 1519 1518 1517 1516 1515 1515 1514 1513 1513 1512 1511 1511
1502 1499 1499 1498 1493 1493 1492 1492 1494 1496 1496 1498 1502 1505 1507 1508 1510 1512 1513 1515 1517 1519 1520 1521 1522 1523 1523 1524 1523 1523 1523 1523 1522 1521 1520 1519 1518 1517 1515 1515 1513 1511 1511 1510 1509 1507 1506 1505 1505
1501 1501 1501 1497 1495 1494 1493 1493 1494 1496 1497 1499 1501 1503 1505 1506 1508 1509 1511 1513 1515 1517 1519 1520 1521 1521 1522 1523 1523 1523 1523 1522 1521 1520 1518 1517 1515 1514 1511 1511 1509 1507 1506 1505 1503 1502 1502 1501 1500
1502 1502 1499 1496 1496 1496 1494 1493 1492 1495 1496 1497 1499 1501 1503 1504 1506 1508 1510 1512 1515 1517 1518 1519 1519 1520 1521 1521 1520 1520 1520 1520 1519 1518 1515 1514 1512 1510 1509 1506 1504 1503 1501 1498 1497 1496 1494 1494 1495
1500 1501 1499 1500 1496 1494 1495 1494 1490 1491 1495 1497 1498 1499 1501 1503 1505 1507 1510 1513 1515 1517 1518 1518 1518 1518 1519 1519 1519 1518 1517 1516 1516 1515 1513 1511 1508 1506 1504 1501 1499 1497 1495 1493 1490 1489 1487 1486 1487
1502 1497 1500 1501 1502 1498 1495 1505 1488 1483 1488 1492 1495 1497 1500 1503 1505 1508 1511 1513 1515 1516 1517 1516 1516 1516 1516 1517 1517 1517 1516 1515 1514 1512 1511 1508 1505 1502 1500 1497 1494 1492 1489 1487 1485 1483 1481 1479 1478
1501 1500 1500 1501 1501 1502 1496 1502 1490 1485 1490 1488 1490 1496 1500 1503 1505 1508 1511 1513 1514 1515 1515 1514 1513 1513 1513 1513 1513 1513 1513 1512 1510 1508 1506 1503 1502 1498 1496 1493 1491 1488 1486 1483 1480 1478 1476 1474 1472
1501 1502 1499 1498 1496 1505 1502 1506 1498 1493 1498 1494 1493 1497 1501 1503 1506 1508 1511 1512 1512 1512 1512 1511 1510 1510 1510 1510 1509 1509 1508 1507 1506 1504 1502 1501 1499 1496 1494 1490 1487 1484 1482 1479 1476 1473 1471 1468 1466
1500 1504 1509 1508 1505 1503 1499 1502 1503 1506 1507 1505 1504 1504 1505 1506 1507 1508 1509 1509 1509 1509 1508 1507 1506 1506 1505 1505 1504 1504 1504 1503 1501 1500 1499 1497 1496 1493 1490 1487 1483 1481 1478 1475 1472 1469 1466 1463 1461
1500 1504 1514 1520 1513 1502 1494 1498 1506 1511 1514 1513 1513 1513 1511 1511 1511 1511 1511 1509 1509 1507 1505 1504 1502 1501 1500 1500 1499 1499 1499 1499 1498 1497 1495 1493 1491 1489 1486 1483 1480 1477 1474 1471 1468 1465 1462 1459 1455
1501 1498 1494 1504 1502 1507 1496 1493 1504 1511 1516 1518 1518 1518 1517 1517 1516 1515 1514 1513 1511 1508 1505 1503 1501 1499 1497 1496 1495 1494 1494 1494 1493 1492 1490 1489 1487 1485 1482 1479 1477 1473 1470 1467 1464 1461 1457 1454 1450
1503 1500 1500 1503 1513 1512 1499 1495 1495 1512 1518 1522 1523 1523 1522 1521 1519 1518 1516 1514 1512 1510 1508 1505 1501 1498 1495 1493 1492 1490 1489 1488 1487 1487 1486 1484 1483 1481 1479 1476 1473 1470 1467 1463 1460 1456 1453 1449 1445
1503 1502 1502 1499 1502 1513 1512 1502 1517 1521 1524 1525 1526 1527 1526 1524 1522 1520 1517 1515 1512 1510 1507 1504 1500 1497 1494 1492 1489 1487 1484 1483 1481 1480 1480 1479 1478 1476 1474 1472 1469 1467 1463 1460 1456 1452 1448 1444 1441
1501 1501 1503 1511 1509 1504 1507 1508 1523 1526 1529 1530 1530 1529 1527 1525 1522 1520 1517 1514 1511 1507 1504 1501 1498 1495 1492 1489 1486 1483 1481 1478 1475 1474 1473 1473 1471 1470 1469 1467 1465 1463 1460 1456 1453 1449 1445 1441 1438